• In Slovakia
  • List of Countries
  • For 7 days
  • Water Temperature
  • Satellite Maps
  • Weather Map
  • Weather Widgets
  • user-avatar
    Login

    Hourly Weather La Massana

    Today, 19 January, Friday

    Time Temperature Precipitation Wind Pressure Humidity
    00:00 -3°C° 0 mm 2 mps 609 mmHg 76%
    01:00 -3°C° 0 mm 2 mps 609 mmHg 79%
    02:00 -3°C° 0 mm 2 mps 609 mmHg 81%
    03:00 -3°C° 0 mm 2 mps 609 mmHg 83%
    04:00 -3°C° 0 mm 2 mps 609 mmHg 83%
    05:00 -3°C° 0 mm 2 mps 608 mmHg 84%
    06:00 -3°C° 0 mm 2 mps 608 mmHg 84%
    07:00 -3°C° 0 mm 2 mps 609 mmHg 80%
    08:00 -2°C° 0 mm 2 mps 609 mmHg 76%
    09:00 -1°C° 0 mm 2 mps 610 mmHg 72%
    10:00 +1°C° 0 mm 2 mps 610 mmHg 70%
    11:00 +2°C° 0 mm 2 mps 611 mmHg 69%
    12:00 +3°C° 0 mm 2 mps 611 mmHg 68%
    13:00 +2°C° 0 mm 3 mps 611 mmHg 67%
    14:00 +2°C° 0 mm 3 mps 611 mmHg 67%
    15:00 +1°C° 0 mm 3 mps 611 mmHg 66%
    16:00 0°C° 0 mm 3 mps 610 mmHg 71%
    17:00 -2°C° 0 mm 3 mps 610 mmHg 75%
    18:00 -5°C° 0 mm 3 mps 610 mmHg 80%
    19:00 -5°C° 0 mm 3 mps 610 mmHg 78%
    20:00 -5°C° 0 mm 3 mps 610 mmHg 76%
    21:00 -5°C° 0 mm 3 mps 610 mmHg 75%
    22:00 -5°C° 0 mm 3 mps 610 mmHg 76%
    23:00 -4°C° 0 mm 2 mps 611 mmHg 77%

    Tomorrow, 20 January, Saturday

    Time Temperature Precipitation Wind Pressure Humidity
    00:00 -4°C° 0 mm 2 mps 611 mmHg 78%
    01:00 -4°C° 0 mm 2 mps 611 mmHg 78%
    02:00 -5°C° 0 mm 2 mps 610 mmHg 79%
    03:00 -5°C° 0 mm 2 mps 610 mmHg 80%
    04:00 -5°C° 0 mm 2 mps 610 mmHg 79%
    05:00 -5°C° 0 mm 2 mps 610 mmHg 77%
    06:00 -5°C° 0 mm 2 mps 609 mmHg 75%
    07:00 -4°C° 0 mm 2 mps 610 mmHg 72%
    08:00 -3°C° 0 mm 2 mps 610 mmHg 68%
    09:00 0°C° 0 mm 1 mps 611 mmHg 64%
    10:00 -1°C° 0.1 mm 2 mps 611 mmHg 65%
    11:00 +1°C° 0.1 mm 2 mps 611 mmHg 66%
    12:00 +2°C° 0.1 mm 2 mps 611 mmHg 67%
    13:00 +1°C° 0.7 mm 3 mps 610 mmHg 71%
    14:00 +1°C° 0.7 mm 3 mps 610 mmHg 75%
    15:00 0°C° 0.7 mm 4 mps 609 mmHg 79%
    16:00 0°C° 0.3 mm 4 mps 609 mmHg 82%
    17:00 -1°C° 0.3 mm 4 mps 609 mmHg 84%
    18:00 -1°C° 0.3 mm 4 mps 609 mmHg 87%
    19:00 -1°C° 0.3 mm 4 mps 610 mmHg 88%
    20:00 -1°C° 0.3 mm 4 mps 610 mmHg 88%
    21:00 0°C° 0.3 mm 3 mps 610 mmHg 89%
    22:00 0°C° 0.5 mm 3 mps 611 mmHg 89%
    23:00 0°C° 0.5 mm 3 mps 611 mmHg 90%

    Day after tomorrow, 21 January, Sunday

    Time Temperature Precipitation Wind Pressure Humidity
    00:00 +1°C° 0.5 mm 3 mps 611 mmHg 90%
    01:00 +1°C° 0.6 mm 3 mps 611 mmHg 90%
    02:00 +1°C° 0.6 mm 3 mps 611 mmHg 90%
    03:00 +1°C° 0.6 mm 3 mps 611 mmHg 90%
    04:00 +1°C° 0.7 mm 3 mps 612 mmHg 90%
    05:00 +1°C° 0.7 mm 3 mps 612 mmHg 90%
    06:00 +1°C° 0.7 mm 3 mps 612 mmHg 90%
    07:00 +1°C° 0.3 mm 3 mps 613 mmHg 89%
    08:00 +1°C° 0.3 mm 3 mps 613 mmHg 88%
    09:00 +2°C° 0.3 mm 3 mps 613 mmHg 86%
    10:00 +2°C° 0.1 mm 3 mps 614 mmHg 83%
    11:00 +3°C° 0.1 mm 3 mps 614 mmHg 80%
    12:00 +4°C° 0.1 mm 3 mps 615 mmHg 77%
    13:00 +4°C° 0.1 mm 3 mps 615 mmHg 78%
    14:00 +4°C° 0.1 mm 3 mps 615 mmHg 78%
    15:00 +3°C° 0.1 mm 3 mps 614 mmHg 79%
    16:00 +3°C° 0.1 mm 3 mps 614 mmHg 81%
    17:00 +2°C° 0.1 mm 3 mps 614 mmHg 84%
    18:00 +1°C° 0.1 mm 3 mps 614 mmHg 86%
    19:00 0°C° 0 mm 3 mps 614 mmHg 86%
    20:00 0°C° 0 mm 3 mps 614 mmHg 86%
    21:00 +1°C° 0 mm 2 mps 614 mmHg 86%
    22:00 -1°C° 0 mm 3 mps 614 mmHg 85%
    23:00 -1°C° 0 mm 3 mps 614 mmHg 84%

    22 January, Monday

    Time Temperature Precipitation Wind Pressure Humidity
    00:00 -1°C° 0 mm 3 mps 614 mmHg 84%
    01:00 -1°C° 0 mm 3 mps 614 mmHg 84%
    02:00 -1°C° 0 mm 3 mps 614 mmHg 84%
    03:00 -1°C° 0 mm 3 mps 614 mmHg 84%
    04:00 -2°C° 0 mm 3 mps 614 mmHg 84%
    05:00 -2°C° 0 mm 3 mps 614 mmHg 84%
    06:00 -2°C° 0 mm 3 mps 613 mmHg 83%
    07:00 -1°C° 0 mm 2 mps 614 mmHg 80%
    08:00 +1°C° 0 mm 2 mps 615 mmHg 77%
    09:00 +2°C° 0 mm 2 mps 615 mmHg 73%
    10:00 +3°C° 0 mm 2 mps 616 mmHg 70%
    11:00 +5°C° 0 mm 2 mps 616 mmHg 67%
    12:00 +6°C° 0 mm 2 mps 617 mmHg 64%
    13:00 +6°C° 0 mm 2 mps 616 mmHg 65%
    14:00 +6°C° 0 mm 2 mps 616 mmHg 66%
    15:00 +6°C° 0 mm 2 mps 616 mmHg 67%
    16:00 +4°C° 0 mm 2 mps 615 mmHg 73%
    17:00 +2°C° 0 mm 2 mps 615 mmHg 78%
    18:00 -1°C° 0 mm 2 mps 614 mmHg 84%
    19:00 -1°C° 0 mm 2 mps 615 mmHg 82%
    20:00 -1°C° 0 mm 2 mps 615 mmHg 79%
    21:00 -2°C° 0 mm 2 mps 615 mmHg 77%
    22:00 -2°C° 0 mm 2 mps 615 mmHg 75%
    23:00 -1°C° 0 mm 2 mps 615 mmHg 73%

    23 January, Tuesday

    Time Temperature Precipitation Wind Pressure Humidity
    00:00 -1°C° 0 mm 2 mps 615 mmHg 71%
    01:00 -1°C° 0 mm 2 mps 615 mmHg 73%
    02:00 -1°C° 0 mm 2 mps 615 mmHg 75%
    03:00 -1°C° 0 mm 2 mps 615 mmHg 77%
    04:00 -1°C° 0 mm 2 mps 615 mmHg 79%
    05:00 -1°C° 0 mm 2 mps 615 mmHg 81%
    06:00 -1°C° 0 mm 2 mps 615 mmHg 82%
    07:00 +1°C° 0 mm 2 mps 616 mmHg 81%
    08:00 +2°C° 0 mm 2 mps 617 mmHg 80%
    09:00 +3°C° 0 mm 2 mps 617 mmHg 80%
    10:00 +5°C° 0 mm 1 mps 618 mmHg 75%
    11:00 +7°C° 0 mm 1 mps 618 mmHg 71%
    12:00 +8°C° 0 mm 1 mps 619 mmHg 66%
    13:00 +8°C° 0 mm 1 mps 618 mmHg 68%
    14:00 +8°C° 0 mm 1 mps 618 mmHg 69%
    15:00 +7°C° 0 mm 1 mps 618 mmHg 71%
    16:00 +6°C° 0 mm 1 mps 617 mmHg 77%
    17:00 +4°C° 0 mm 1 mps 616 mmHg 82%
    18:00 +2°C° 0 mm 1 mps 616 mmHg 88%
    19:00 +2°C° 0 mm 1 mps 616 mmHg 87%
    20:00 +2°C° 0 mm 1 mps 616 mmHg 86%
    21:00 +2°C° 0 mm 1 mps 616 mmHg 85%
    22:00 +2°C° 0 mm 1 mps 616 mmHg 84%
    23:00 +2°C° 0 mm 1 mps 615 mmHg 83%

    24 January, Wednesday

    Time Temperature Precipitation Wind Pressure Humidity
    00:00 +2°C° 0 mm 1 mps 615 mmHg 83%
    01:00 +1°C° 0 mm 1 mps 615 mmHg 82%
    02:00 +1°C° 0 mm 1 mps 615 mmHg 81%
    03:00 +1°C° 0 mm 1 mps 614 mmHg 80%
    04:00 +1°C° 0 mm 1 mps 614 mmHg 79%
    05:00 +1°C° 0 mm 1 mps 614 mmHg 77%
    06:00 +1°C° 0 mm 1 mps 614 mmHg 76%
    07:00 +2°C° 0 mm 1 mps 614 mmHg 71%
    08:00 +3°C° 0 mm 1 mps 615 mmHg 67%
    09:00 +4°C° 0 mm 1 mps 615 mmHg 63%
    10:00 +6°C° 0 mm 1 mps 616 mmHg 59%
    11:00 +6°C° 0 mm 2 mps 616 mmHg 55%
    12:00 +8°C° 0 mm 2 mps 617 mmHg 50%
    13:00 +8°C° 0 mm 2 mps 616 mmHg 52%
    14:00 +7°C° 0 mm 2 mps 616 mmHg 53%
    15:00 +7°C° 0 mm 2 mps 615 mmHg 55%
    16:00 +5°C° 0 mm 2 mps 614 mmHg 60%
    17:00 +4°C° 0 mm 1 mps 613 mmHg 65%
    18:00 +2°C° 0 mm 1 mps 612 mmHg 70%
    19:00 +1°C° 0 mm 1 mps 612 mmHg 66%
    20:00 +1°C° 0 mm 1 mps 612 mmHg 62%
    21:00 +1°C° 0 mm 1 mps 612 mmHg 58%
    22:00 -2°C° 0 mm 2 mps 612 mmHg 57%
    23:00 -2°C° 0 mm 2 mps 612 mmHg 55%
    Show more